Sigfox identifier Datetime Temperature Humidity SNR
002F8F1D 2019-04-23 14:51:04 21.6 28 16.6
002F8F1D 2019-04-23 14:17:51 21.6 28 16.6
002F8F1D 2019-04-23 13:44:41 21.6 28 16.7
002F8F1D 2019-04-23 13:11:27 21.5 28 16
002F8F1D 2019-04-23 12:38:16 21.5 28 16.1
002F8F1D 2019-04-23 12:05:05 21.4 28 16.4
002F8F1D 2019-04-23 11:31:58 21.4 28 16.7
002F8F1D 2019-04-23 10:58:42 21.4 28 19.4
002F8F1D 2019-04-23 10:25:33 21.4 27 19.1
002F8F1D 2019-04-23 09:52:20 21.3 27 19.3
002F8F1D 2019-04-23 09:19:09 21.2 27 19
002F8F1D 2019-04-23 08:45:58 21.2 27 19.2
002F8F1D 2019-04-23 08:12:48 21.2 27 19.3
002F8F1D 2019-04-23 07:39:37 21.2 27 19.4
002F8F1D 2019-04-23 07:06:26 21.2 27 19.4
002F8F1D 2019-04-23 06:33:16 21.2 27 19.4
002F8F1D 2019-04-23 06:00:04 21.2 27 19.8
002F8F1D 2019-04-23 05:26:54 21.2 27 20
002F8F1D 2019-04-23 04:53:42 21.2 27 20.3
002F8F1D 2019-04-23 04:20:31 21.2 27 20.1
002F8F1D 2019-04-23 03:47:20 21.2 27 20.1
002F8F1D 2019-04-23 03:14:09 21.2 27 20
002F8F1D 2019-04-23 02:41:01 21.2 27 20.2
002F8F1D 2019-04-23 02:07:50 21.2 27 20.3
002F8F1D 2019-04-23 01:34:39 21.2 27 20.4
002F8F1D 2019-04-23 01:01:27 21.2 27 20.4
002F8F1D 2019-04-23 00:28:16 21.2 27 20.4
002F8F1D 2019-04-22 23:55:06 21.2 27 20.5
002F8F1D 2019-04-22 23:21:55 21.2 27 20.5
002F8F1D 2019-04-22 22:48:43 21.2 27 20.7
002F8F1D 2019-04-22 22:15:32 21.2 27 20.6
002F8F1D 2019-04-22 21:42:21 21.2 27 20.4
002F8F1D 2019-04-22 21:09:09 21.2 27 18.6
002F8F1D 2019-04-22 20:35:59 21.1 27 18.5
002F8F1D 2019-04-22 20:02:48 21.1 27 18.4
002F8F1D 2019-04-22 19:29:38 21.1 27 18.3
002F8F1D 2019-04-22 18:56:27 21.1 27 18.4
002F8F1D 2019-04-22 18:23:16 21.1 27 18.2
002F8F1D 2019-04-22 17:50:05 21.2 27 18.1
002F8F1D 2019-04-22 17:16:54 21.2 27 18.2
002F8F1D 2019-04-22 16:43:44 21.2 27 17.5
002F8F1D 2019-04-22 16:10:32 21.2 27 17.2
002F8F1D 2019-04-22 15:37:24 21.2 27 16.9
002F8F1D 2019-04-22 15:04:11 21.2 27 16.9
002F8F1D 2019-04-22 14:31:03 21.2 27 16.9
002F8F1D 2019-04-22 13:57:51 21.2 26 17.1
002F8F1D 2019-04-22 13:24:40 21.2 26 16.7
002F8F1D 2019-04-22 12:51:29 21.2 26 16.5
002F8F1D 2019-04-22 12:18:18 21.2 26 16.9
002F8F1D 2019-04-22 11:45:08 21.2 26 17
002F8F1D 2019-04-22 11:11:56 21.2 26 16.9
002F8F1D 2019-04-22 10:38:45 21.2 26 16.7
002F8F1D 2019-04-22 10:05:35 21.2 26 16.8
002F8F1D 2019-04-22 09:32:25 21.2 26 16.5
002F8F1D 2019-04-22 08:59:16 21.2 26 16.9
002F8F1D 2019-04-22 08:26:04 21.2 26 17.4
002F8F1D 2019-04-22 07:52:53 21.2 26 17.3
002F8F1D 2019-04-22 07:19:42 21.2 26 17.6
002F8F1D 2019-04-22 06:46:32 21.2 26 18.1
002F8F1D 2019-04-22 06:13:23 21.2 26 18.1
002F8F1D 2019-04-22 05:40:13 21.2 26 18.3
002F8F1D 2019-04-22 05:07:01 21.2 26 18.1
002F8F1D 2019-04-22 04:33:52 21.3 26 18.1
002F8F1D 2019-04-22 04:00:41 21.3 26 18
002F8F1D 2019-04-22 03:27:30 21.3 26 18.2
002F8F1D 2019-04-22 02:54:19 21.4 26 18.1
002F8F1D 2019-04-22 02:21:09 21.4 26 18.1
002F8F1D 2019-04-22 01:47:59 21.4 26 18
002F8F1D 2019-04-22 01:14:49 21.4 26 17.9
002F8F1D 2019-04-22 00:41:39 21.4 26 18.1
002F8F1D 2019-04-22 00:08:30 21.4 26 18
002F8F1D 2019-04-21 23:35:20 21.4 26 18.6
002F8F1D 2019-04-21 23:02:11 21.4 26 18.6
002F8F1D 2019-04-21 22:29:01 21.4 26 18.2
002F8F1D 2019-04-21 21:55:51 21.4 26 18.3
002F8F1D 2019-04-21 21:22:40 21.4 26 18.3
002F8F1D 2019-04-21 20:49:29 21.4 26 18.7
002F8F1D 2019-04-21 20:16:19 21.4 26 18.7
002F8F1D 2019-04-21 19:43:07 21.4 26 18.5
002F8F1D 2019-04-21 19:09:57 21.4 26 18.3
002F8F1D 2019-04-21 18:36:46 21.4 26 18.2
002F8F1D 2019-04-21 18:03:34 21.3 26 18.2
002F8F1D 2019-04-21 17:30:23 21.4 26 18.1
002F8F1D 2019-04-21 16:57:11 21.3 26 17.5
002F8F1D 2019-04-21 16:24:00 21.2 26 17.5
002F8F1D 2019-04-21 15:50:48 21.2 26 16.9
002F8F1D 2019-04-21 15:17:38 21.2 26 16.9
002F8F1D 2019-04-21 14:44:28 21.2 26 16.9
002F8F1D 2019-04-21 14:11:16 21.2 25 16.9
002F8F1D 2019-04-21 13:38:08 21.2 25 16.9
002F8F1D 2019-04-21 13:04:55 21.1 25 16.9
002F8F1D 2019-04-21 12:31:45 21.2 25 17
002F8F1D 2019-04-21 11:58:37 21.2 25 17.1
002F8F1D 2019-04-21 11:25:25 21.1 25 16.9
002F8F1D 2019-04-21 10:52:15 21.1 25 16.8
002F8F1D 2019-04-21 10:19:06 21.1 25 15.9
002F8F1D 2019-04-21 09:45:57 21.2 25 16
002F8F1D 2019-04-21 09:12:47 21.2 25 15.8
002F8F1D 2019-04-21 08:39:39 21.2 25 16
002F8F1D 2019-04-21 08:06:27 21.2 25 15.9
002F8F1D 2019-04-21 07:33:16 21.2 25 15.4
002F8F1D 2019-04-21 07:00:06 21.2 25 16
002F8F1D 2019-04-21 06:26:58 21.2 25 16.2
002F8F1D 2019-04-21 05:53:47 21.2 25 15.7
002F8F1D 2019-04-21 05:20:36 21.2 25 15.8
002F8F1D 2019-04-21 04:47:24 21.2 25 16.5
002F8F1D 2019-04-21 04:14:14 21.2 25 16.9
002F8F1D 2019-04-21 03:41:04 21.2 25 16.9
002F8F1D 2019-04-21 03:07:53 21.2 25 17.3
002F8F1D 2019-04-21 02:34:42 21.2 25 17.8
002F8F1D 2019-04-21 02:01:33 21.2 25 17.8
002F8F1D 2019-04-21 01:28:20 21.2 25 17.8
002F8F1D 2019-04-21 00:55:10 21.2 25 18.2
002F8F1D 2019-04-21 00:21:58 21.2 25 18.6
002F8F1D 2019-04-20 23:48:47 21.2 25 18.7
002F8F1D 2019-04-20 23:15:37 21.2 25 19
002F8F1D 2019-04-20 22:42:23 21.2 25 19.3
002F8F1D 2019-04-20 22:09:12 21.2 25 19.6
002F8F1D 2019-04-20 21:36:00 21.2 25 19.8
002F8F1D 2019-04-20 21:02:49 21.2 24 20
002F8F1D 2019-04-20 20:29:40 21.2 24 20.4
002F8F1D 2019-04-20 19:56:27 21.2 24 20.7
002F8F1D 2019-04-20 19:23:17 21.2 24 20.6
002F8F1D 2019-04-20 18:50:06 21.2 24 20.7
002F8F1D 2019-04-20 18:16:55 21.2 24 20.8
002F8F1D 2019-04-20 17:43:45 21.2 24 20.6
002F8F1D 2019-04-20 17:10:35 21.2 24 20.8
002F8F1D 2019-04-20 16:37:24 21.2 24 21.1
002F8F1D 2019-04-20 16:04:13 21.2 24 21.1
002F8F1D 2019-04-20 15:31:03 21.2 24 21.1
002F8F1D 2019-04-20 14:57:52 21.2 24 20.8
002F8F1D 2019-04-20 14:24:41 21.2 24 20.8
002F8F1D 2019-04-20 13:51:31 21.2 24 20.8
002F8F1D 2019-04-20 13:18:20 21.2 24 20.8
002F8F1D 2019-04-20 12:45:09 21.2 24 20.6
002F8F1D 2019-04-20 12:11:59 21.2 24 20.8
002F8F1D 2019-04-20 11:38:48 21.2 24 21
002F8F1D 2019-04-20 11:05:36 21.2 24 20.7
002F8F1D 2019-04-20 10:32:26 21.2 24 20.5
002F8F1D 2019-04-20 09:59:16 21.1 24 20.6
002F8F1D 2019-04-20 09:26:04 21.1 23 20.5
002F8F1D 2019-04-20 08:52:53 21.1 24 20.3
002F8F1D 2019-04-20 08:19:42 21.1 23 20.1
002F8F1D 2019-04-20 07:46:30 21.1 23 20.2
002F8F1D 2019-04-20 07:13:19 21.1 23 20
002F8F1D 2019-04-20 06:40:07 21.1 23 19.9
002F8F1D 2019-04-20 06:06:56 21 23 20.1
002F8F1D 2019-04-20 05:33:46 21 23 20.4
002F8F1D 2019-04-20 05:00:35 21 23 20.5
002F8F1D 2019-04-20 04:27:24 21 23 20.3
002F8F1D 2019-04-20 03:54:14 21 23 20.4
002F8F1D 2019-04-20 03:21:03 21 23 20.2
002F8F1D 2019-04-20 02:47:52 21 23 20
002F8F1D 2019-04-20 02:14:42 21 23 19.9
002F8F1D 2019-04-20 01:41:31 21 23 20.1
002F8F1D 2019-04-20 01:08:21 21 23 20.2
002F8F1D 2019-04-20 00:35:11 21 23 20.3
002F8F1D 2019-04-20 00:02:00 21 23 20.3
002F8F1D 2019-04-19 23:28:51 21 23 20.4
002F8F1D 2019-04-19 22:55:38 21 23 20.5
002F8F1D 2019-04-19 22:22:27 21 23 20.4
002F8F1D 2019-04-19 21:49:15 21 23 20.5
002F8F1D 2019-04-19 21:16:03 21 24 20.8
002F8F1D 2019-04-19 20:42:54 21 24 21.1
002F8F1D 2019-04-19 20:09:41 21 24 21.1
002F8F1D 2019-04-19 19:36:32 21 24 21.3
002F8F1D 2019-04-19 19:03:19 21 24 21.5
002F8F1D 2019-04-19 18:30:07 21 24 21.7
002F8F1D 2019-04-19 17:56:56 21 24 21.6
002F8F1D 2019-04-19 17:23:44 21 24 21.8
002F8F1D 2019-04-19 16:50:33 21 24 21.7
002F8F1D 2019-04-19 16:17:24 21 24 21.3
002F8F1D 2019-04-19 15:44:14 21 24 21
002F8F1D 2019-04-19 15:11:02 21 24 21.2
002F8F1D 2019-04-19 14:37:53 21 24 21.3
002F8F1D 2019-04-19 14:04:39 21 24 21.4
002F8F1D 2019-04-19 13:31:27 21 24 21.6
002F8F1D 2019-04-19 12:58:15 21 24 21.8
002F8F1D 2019-04-19 12:25:03 21 25 21.9
002F8F1D 2019-04-19 11:51:53 21.1 25 21.8
002F8F1D 2019-04-19 11:18:42 21.1 25 21.9
002F8F1D 2019-04-19 10:45:31 21.2 25 22
002F8F1D 2019-04-19 10:12:19 21.2 25 22.2
002F8F1D 2019-04-19 09:39:08 21.2 25 22.2
002F8F1D 2019-04-19 09:05:58 21.2 25 22.3
002F8F1D 2019-04-19 08:32:48 21.2 25 22.3
002F8F1D 2019-04-19 07:59:37 21.2 25 22.1
002F8F1D 2019-04-19 07:26:26 21.2 25 22.1
002F8F1D 2019-04-19 06:53:15 21.2 25 21.8
002F8F1D 2019-04-19 06:20:03 21.2 26 21.6
002F8F1D 2019-04-19 05:46:52 21.2 26 21.4
002F8F1D 2019-04-19 05:13:41 21.2 26 21.1
002F8F1D 2019-04-19 04:40:30 21.2 26 20.8
002F8F1D 2019-04-19 04:07:19 21.3 26 21.9
002F8F1D 2019-04-19 03:34:08 21.4 26 22.7
002F8F1D 2019-04-19 03:00:56 21.4 26 23.5
002F8F1D 2019-04-19 02:27:44 21.4 26 23.8
002F8F1D 2019-04-19 01:54:34 21.4 26 24.1
002F8F1D 2019-04-19 01:21:23 21.4 26 24.2
002F8F1D 2019-04-19 00:48:12 21.4 26 24.4
002F8F1D 2019-04-19 00:15:02 21.4 26 24.5
002F8F1D 2019-04-18 23:41:50 21.4 26 24.7
002F8F1D 2019-04-18 23:08:39 21.4 26 24.9
002F8F1D 2019-04-18 22:02:16 21.4 26 24.9
002F8F1D 2019-04-18 21:29:05 21.3 26 25
002F8F1D 2019-04-18 20:55:53 21.4 26 25.1
002F8F1D 2019-04-18 20:22:42 21.4 26 25.3
002F8F1D 2019-04-18 19:49:31 21.4 26 25.4
002F8F1D 2019-04-18 19:16:20 21.4 26 25.6
002F8F1D 2019-04-18 18:43:08 21.5 26 25.8
002F8F1D 2019-04-18 18:09:55 21.6 26 25.9
002F8F1D 2019-04-18 17:36:48 21.6 26 26.3
002F8F1D 2019-04-18 17:03:34 21.6 26 26.3
002F8F1D 2019-04-18 16:30:21 21.6 26 26.5
002F8F1D 2019-04-18 15:57:08 21.6 26 26.6
002F8F1D 2019-04-18 15:23:56 21.7 26 26.7
002F8F1D 2019-04-18 14:50:48 21.8 26 26.8
002F8F1D 2019-04-18 14:17:35 21.8 26 26.9
002F8F1D 2019-04-18 13:44:21 21.9 26 26.7
002F8F1D 2019-04-18 13:11:09 22 26 26.4
002F8F1D 2019-04-18 12:37:57 22.2 26 26.1
002F8F1D 2019-04-18 12:04:44 22.5 20 26
002F8F1D 2019-04-18 11:31:32 22.5 21 26
002F8F1D 2019-04-18 10:58:20 22.5 21 25.9
002F8F1D 2019-04-18 10:25:07 22.2 22 25.9
002F8F1D 2019-04-18 09:51:55 22.2 22 25.8
002F8F1D 2019-04-18 09:18:43 22.2 21 25.7
002F8F1D 2019-04-18 08:45:30 22.2 21 25.6
002F8F1D 2019-04-18 08:12:17 22.2 21 25.6
002F8F1D 2019-04-18 07:39:07 22.2 21 25.6
002F8F1D 2019-04-18 07:05:56 22.2 21 25.7
002F8F1D 2019-04-18 06:32:44 22.2 21 25.7
002F8F1D 2019-04-18 05:59:33 22.2 21 25.5
002F8F1D 2019-04-18 05:26:20 22.2 22 25.3
002F8F1D 2019-04-18 04:53:08 22.2 22 25.5
002F8F1D 2019-04-18 04:19:55 22.3 22 25.6
002F8F1D 2019-04-18 03:46:43 22.4 22 25.3
002F8F1D 2019-04-18 03:13:31 22.5 22 25.3
002F8F1D 2019-04-18 02:40:19 22.5 22 25.3
002F8F1D 2019-04-18 02:07:08 22.5 22 25.3
002F8F1D 2019-04-18 01:33:57 22.5 22 25.7
002F8F1D 2019-04-18 01:00:44 22.5 22 25.8
002F8F1D 2019-04-18 00:27:33 22.5 22 25.8
002F8F1D 2019-04-17 23:54:22 22.5 22 25.8
002F8F1D 2019-04-17 23:21:10 22.5 22 25.7
002F8F1D 2019-04-17 22:47:58 22.5 22 25.7
002F8F1D 2019-04-17 22:14:45 22.6 22 25.7
002F8F1D 2019-04-17 21:41:34 22.7 22 25.6
002F8F1D 2019-04-17 21:08:21 22.7 22 25.6
002F8F1D 2019-04-17 20:35:08 22.9 22 25.6
002F8F1D 2019-04-17 20:01:56 22.9 22 25.6
002F8F1D 2019-04-17 19:28:44 22.9 22 25.7
002F8F1D 2019-04-17 18:55:32 22.9 22 25.7
002F8F1D 2019-04-17 18:22:21 22.9 21 25.8
002F8F1D 2019-04-17 17:49:09 22.9 21 25.9
002F8F1D 2019-04-17 17:15:56 23.1 21 25.9
002F8F1D 2019-04-17 16:42:44 23.1 21 25.9
002F8F1D 2019-04-17 16:09:32 23.1 22 25.9
002F8F1D 2019-04-17 15:36:19 23.1 22 25.9
002F8F1D 2019-04-17 15:03:08 23 22 25.7
002F8F1D 2019-04-17 14:29:56 23 23 25.6
002F8F1D 2019-04-17 13:56:44 22.9 23 25.6
002F8F1D 2019-04-17 13:23:32 22.8 23 25.7
002F8F1D 2019-04-17 12:50:21 22.7 23 25.7
002F8F1D 2019-04-17 12:17:10 22.6 23 25.6
002F8F1D 2019-04-17 11:43:58 22.5 22 25.4
002F8F1D 2019-04-17 11:10:46 22.5 22 25.3
002F8F1D 2019-04-17 10:37:34 22.2 21 25.3
002F8F1D 2019-04-17 10:04:23 22.2 21 25.2
002F8F1D 2019-04-17 09:31:11 22.2 21 25.3
002F8F1D 2019-04-17 08:58:00 22.2 21 25.3
002F8F1D 2019-04-17 08:24:49 22.2 20 25.3
002F8F1D 2019-04-17 07:51:38 22.2 20 25.3
002F8F1D 2019-04-17 07:18:25 22.2 19 25.6
002F8F1D 2019-04-17 06:45:12 22.2 19 25.6
002F8F1D 2019-04-17 06:12:01 22.2 19 25.6
002F8F1D 2019-04-17 05:38:49 22.2 19 25.4
002F8F1D 2019-04-17 05:05:34 22.1 19 25.7
002F8F1D 2019-04-17 04:32:22 22.2 19 25.6
002F8F1D 2019-04-17 03:59:10 22.2 19 25.5
002F8F1D 2019-04-17 03:25:59 22.2 19 25.4
002F8F1D 2019-04-17 02:52:47 22.2 20 25.5
002F8F1D 2019-04-17 02:19:34 22.2 20 25.5
002F8F1D 2019-04-17 01:46:22 22.2 20 25.5
002F8F1D 2019-04-17 01:13:09 22.2 20 25.5
002F8F1D 2019-04-17 00:39:58 22.2 20 25.5
002F8F1D 2019-04-17 00:06:45 22.2 20 25.5
002F8F1D 2019-04-16 23:33:34 22.3 20 25.4
002F8F1D 2019-04-16 23:00:23 22.4 20 25.4
002F8F1D 2019-04-16 22:27:11 22.5 20 25.5
002F8F1D 2019-04-16 21:53:59 22.5 19 25.3
002F8F1D 2019-04-16 21:20:47 22.5 19 25.4
002F8F1D 2019-04-16 20:47:36 22.5 19 25.5
002F8F1D 2019-04-16 20:14:24 22.5 19 25.7
002F8F1D 2019-04-16 19:41:14 22.5 19 25.9
002F8F1D 2019-04-16 19:08:03 22.5 19 26.1
002F8F1D 2019-04-16 18:34:53 22.5 18 26.2
002F8F1D 2019-04-16 18:01:42 22.6 18 26.2
002F8F1D 2019-04-16 17:28:30 22.7 18 26
002F8F1D 2019-04-16 16:55:18 22.9 18 26.2
002F8F1D 2019-04-16 16:22:06 22.9 18 26.2
002F8F1D 2019-04-16 15:48:54 22.9 18 26.3
002F8F1D 2019-04-16 15:15:42 22.9 19 26.1
002F8F1D 2019-04-16 14:42:30 22.9 19 26.4
002F8F1D 2019-04-16 14:09:19 22.7 18 26.4
002F8F1D 2019-04-16 13:36:08 22.7 18 26.5
002F8F1D 2019-04-16 13:02:57 22.6 18 26.4
002F8F1D 2019-04-16 12:29:46 22.5 18 26.5
002F8F1D 2019-04-16 11:56:34 22.5 18 26.4
002F8F1D 2019-04-16 11:23:22 22.3 18 26.5
002F8F1D 2019-04-16 10:50:10 22.3 18 26.5
002F8F1D 2019-04-16 10:16:58 22.2 18 26.5
002F8F1D 2019-04-16 09:43:46 22.2 18 26.4
002F8F1D 2019-04-16 09:10:33 22.2 18 26.5
002F8F1D 2019-04-16 08:37:21 22.2 18 26.5
002F8F1D 2019-04-16 08:04:09 22.2 17 26.6
002F8F1D 2019-04-16 07:30:56 22.2 17 26.6
002F8F1D 2019-04-16 06:57:45 22.2 17 26.6
002F8F1D 2019-04-16 06:24:32 22.2 17 26.7
002F8F1D 2019-04-16 05:51:21 22.2 17 26.6
002F8F1D 2019-04-16 05:18:09 22.2 17 26.3
002F8F1D 2019-04-16 04:44:58 22.2 17 26.3
002F8F1D 2019-04-16 04:11:46 22.2 17 26.5
002F8F1D 2019-04-16 03:38:36 22.2 17 26.5
002F8F1D 2019-04-16 03:05:24 22.2 17 26.6
002F8F1D 2019-04-16 02:32:12 22.2 17 26.8
002F8F1D 2019-04-16 01:59:01 22.2 17 26.8
002F8F1D 2019-04-16 01:25:48 22.2 17 26.7
002F8F1D 2019-04-16 00:52:36 22.2 17 26.6
002F8F1D 2019-04-16 00:19:25 22.2 17 26.6
002F8F1D 2019-04-15 23:46:14 22.2 17 26.4
002F8F1D 2019-04-15 23:13:03 22.2 17 26.4
002F8F1D 2019-04-15 22:39:51 22.3 17 26.3
002F8F1D 2019-04-15 22:06:39 22.4 16 26.4
002F8F1D 2019-04-15 21:33:28 22.4 16 26.3
002F8F1D 2019-04-15 21:00:16 22.5 16 26.4
002F8F1D 2019-04-15 20:27:03 22.5 16 26.5
002F8F1D 2019-04-15 19:53:50 22.5 16 26.4
002F8F1D 2019-04-15 19:20:38 22.5 15 26.3
002F8F1D 2019-04-15 18:47:26 22.5 15 26.5
002F8F1D 2019-04-15 18:14:15 22.5 15 26.4
002F8F1D 2019-04-15 17:41:02 22.7 15 26.5
002F8F1D 2019-04-15 17:07:50 22.7 15 26.4
002F8F1D 2019-04-15 16:34:38 22.8 15 26.2
002F8F1D 2019-04-15 16:01:25 22.9 15 26.1
002F8F1D 2019-04-15 15:28:12 22.8 16 26.1
002F8F1D 2019-04-15 14:55:01 22.7 16 26.4
002F8F1D 2019-04-15 14:21:48 22.7 16 26.3
002F8F1D 2019-04-15 13:48:37 22.7 16 26.3
002F8F1D 2019-04-15 13:15:24 22.6 16 26.3
002F8F1D 2019-04-15 12:42:12 22.5 16 26.1
002F8F1D 2019-04-15 12:08:59 22.5 16 26.1
002F8F1D 2019-04-15 11:35:47 22.4 16 26.2
002F8F1D 2019-04-15 11:02:34 22.2 16 26.1
002F8F1D 2019-04-15 10:29:21 22.2 16 26.4
002F8F1D 2019-04-15 09:56:08 22.2 17 26.4
002F8F1D 2019-04-15 09:22:54 22.2 17 26.5
002F8F1D 2019-04-15 08:49:41 22.1 17 26.6
002F8F1D 2019-04-15 08:16:28 22 16 26.6
002F8F1D 2019-04-15 07:43:16 22 17 26.6
002F8F1D 2019-04-15 07:10:03 22 17 26.5
002F8F1D 2019-04-15 06:36:50 22 17 26.4
002F8F1D 2019-04-15 06:03:38 22 17 26.4
002F8F1D 2019-04-15 05:30:25 21.9 17 26.4
002F8F1D 2019-04-15 04:57:13 21.8 17 26.3
002F8F1D 2019-04-15 04:24:01 21.8 17 26.2
002F8F1D 2019-04-15 03:50:49 21.9 17 26.1
002F8F1D 2019-04-15 03:17:37 21.9 17 26.1
002F8F1D 2019-04-15 02:44:24 21.9 17 26
002F8F1D 2019-04-15 02:11:13 21.9 17 26.1
002F8F1D 2019-04-15 01:38:01 21.9 17 26.4
002F8F1D 2019-04-15 01:04:49 21.8 17 26.2
002F8F1D 2019-04-15 00:31:38 21.8 17 26
002F8F1D 2019-04-14 23:58:26 21.8 17 26
002F8F1D 2019-04-14 23:25:14 21.8 17 25.8
002F8F1D 2019-04-14 22:52:02 21.8 17 25.8
002F8F1D 2019-04-14 22:18:50 22 17 25.8
002F8F1D 2019-04-14 21:45:39 22 18 25.6
002F8F1D 2019-04-14 21:12:28 22 18 25.6
002F8F1D 2019-04-14 20:39:15 22 18 25.4
002F8F1D 2019-04-14 20:06:04 22.1 18 25.4
002F8F1D 2019-04-14 19:32:52 22.1 18 25.4
002F8F1D 2019-04-14 18:59:40 22.1 18 25.6
002F8F1D 2019-04-14 18:26:28 22 18 25.6
002F8F1D 2019-04-14 17:53:15 22 18 25.6
002F8F1D 2019-04-14 17:20:03 22 18 25.7
002F8F1D 2019-04-14 16:46:51 22 18 26
002F8F1D 2019-04-14 16:13:40 22 18 26.2
002F8F1D 2019-04-14 15:40:28 22 18 26.1
002F8F1D 2019-04-14 15:07:17 22 18 26.2
002F8F1D 2019-04-14 14:34:05 22 18 26.2
002F8F1D 2019-04-14 14:00:53 22 18 26.4
002F8F1D 2019-04-14 13:27:42 22 18 26.5
002F8F1D 2019-04-14 12:54:31 22 18 26.7
002F8F1D 2019-04-14 12:21:20 22 18 26.6
002F8F1D 2019-04-14 11:48:08 22 18 26.4
002F8F1D 2019-04-14 11:14:57 22 18 26.5
002F8F1D 2019-04-14 10:41:44 22 18 26.5
002F8F1D 2019-04-14 10:08:33 22 18 26.5
002F8F1D 2019-04-14 09:35:20 22 18 26.5
002F8F1D 2019-04-14 09:02:08 22 18 26.6
002F8F1D 2019-04-14 08:28:56 22 18 26.8
002F8F1D 2019-04-14 07:55:44 22 18 26.9
002F8F1D 2019-04-14 07:22:32 22 18 26.8
002F8F1D 2019-04-14 06:49:20 22 18 26.8
002F8F1D 2019-04-14 06:16:07 22 18 26.8
002F8F1D 2019-04-14 05:42:55 22 17 27
002F8F1D 2019-04-14 05:09:42 22 18 26.8
002F8F1D 2019-04-14 04:36:30 22 18 26.8
002F8F1D 2019-04-14 04:03:18 22 17 26.8
002F8F1D 2019-04-14 03:30:07 22 18 26.7
002F8F1D 2019-04-14 02:56:55 22 18 26.4
002F8F1D 2019-04-14 02:23:44 22 18 26.4
002F8F1D 2019-04-14 01:50:32 22 18 26.5
002F8F1D 2019-04-14 01:17:20 22 18 26.5
002F8F1D 2019-04-14 00:44:08 22 18 26.5
002F8F1D 2019-04-14 00:10:56 22 18 26.2
002F8F1D 2019-04-13 23:37:44 22 17 26.1
002F8F1D 2019-04-13 23:04:33 22.1 17 26
002F8F1D 2019-04-13 22:31:21 22.2 17 26.1
002F8F1D 2019-04-13 21:58:09 22.1 17 25.9
002F8F1D 2019-04-13 21:24:57 22.2 17 25.9
002F8F1D 2019-04-13 20:51:45 22.2 17 26
002F8F1D 2019-04-13 20:18:33 22.2 17 26.1
002F8F1D 2019-04-13 19:45:21 22.2 17 26.1
002F8F1D 2019-04-13 19:12:09 22.2 17 26
002F8F1D 2019-04-13 18:38:57 22.2 18 26
002F8F1D 2019-04-13 18:05:45 22.2 18 26.1
002F8F1D 2019-04-13 17:32:33 22.2 18 26.1
002F8F1D 2019-04-13 16:59:20 22.2 18 26.1
002F8F1D 2019-04-13 16:26:09 22.3 18 26.1
002F8F1D 2019-04-13 15:52:56 22.3 18 25.8
002F8F1D 2019-04-13 15:19:43 22.3 18 25.8
002F8F1D 2019-04-13 14:46:31 22.4 18 26
002F8F1D 2019-04-13 14:13:19 22.5 18 26
002F8F1D 2019-04-13 13:40:07 22.5 18 25.9
002F8F1D 2019-04-13 13:06:54 22.5 18 25.9
002F8F1D 2019-04-13 12:33:41 22.5 18 25.9
002F8F1D 2019-04-13 12:00:29 22.5 18 25.8
002F8F1D 2019-04-13 11:27:16 22.5 18 25.8
002F8F1D 2019-04-13 10:54:03 22.5 18 25.9
002F8F1D 2019-04-13 10:20:51 22.5 18 26
002F8F1D 2019-04-13 09:47:37 22.5 18 26.3
002F8F1D 2019-04-13 09:14:23 22.5 17 26.3
002F8F1D 2019-04-13 08:41:09 22.5 17 26.3
002F8F1D 2019-04-13 08:07:54 22.5 17 26.2
002F8F1D 2019-04-13 07:34:39 22.4 17 26.3
002F8F1D 2019-04-13 07:01:24 22.5 17 26.2
002F8F1D 2019-04-13 06:28:10 22.5 17 26.2
002F8F1D 2019-04-13 05:54:56 22.5 17 26.1
002F8F1D 2019-04-13 05:21:41 22.5 17 26.1
002F8F1D 2019-04-13 04:48:27 22.5 17 26.3
002F8F1D 2019-04-13 04:15:13 22.5 17 26.5
002F8F1D 2019-04-13 03:41:59 22.5 17 26.7
002F8F1D 2019-04-13 03:08:46 22.5 17 26.9
002F8F1D 2019-04-13 02:35:31 22.5 18 26.8
002F8F1D 2019-04-13 02:02:17 22.5 18 26.9
002F8F1D 2019-04-13 01:29:03 22.5 18 26.9
002F8F1D 2019-04-13 00:55:49 22.6 18 26.9
002F8F1D 2019-04-13 00:22:34 22.6 18 26.9
002F8F1D 2019-04-12 23:49:21 22.7 18 27
002F8F1D 2019-04-12 23:16:07 22.7 18 27.1
002F8F1D 2019-04-12 22:42:53 22.7 18 27.2
002F8F1D 2019-04-12 22:09:38 22.8 18 27.4
002F8F1D 2019-04-12 21:36:26 22.8 19 27.4
002F8F1D 2019-04-12 21:03:10 22.9 19 27.5
002F8F1D 2019-04-12 20:29:56 22.9 19 27.6
002F8F1D 2019-04-12 19:56:42 22.9 18 27.4
002F8F1D 2019-04-12 19:23:27 22.9 18 27.5
002F8F1D 2019-04-12 18:50:13 22.9 18 27.5
002F8F1D 2019-04-12 18:16:58 23.1 17 27.8
002F8F1D 2019-04-12 17:43:44 23.1 18 28
002F8F1D 2019-04-12 17:10:30 23.1 18 28.2
002F8F1D 2019-04-12 16:37:16 23.3 18 28.3
002F8F1D 2019-04-12 16:04:01 23.2 19 28.7
002F8F1D 2019-04-12 15:30:46 23.1 18 29.1
002F8F1D 2019-04-12 14:57:32 22.9 19 28.8
002F8F1D 2019-04-12 14:24:17 22.7 20 28.3
002F8F1D 2019-04-12 13:51:04 22.2 20 27.1
002F8F1D 2019-04-12 13:17:50 21.4 23 14